Regional Weather Roundup
Issued by NWS

Home | Current Version | Previous Version | Text Only | Print | Product List | Glossary Off
Versions: 1 2 3 4 5 6 7 8 9 10 11 12 13 14 15 16 17 18 19 20 21 22 23 24 25 26 27 28 29 30 31 32 33 34 35 36 37 38 39 40 41 42 43 44 45 46 47 48 49 50

000
ASUS43 KLSX 270407
RWRMO

WEATHER SUMMARY FOR MISSOURI
NATIONAL WEATHER SERVICE SPRINGFIELD MO
1100 PM CDT SUN APR 26 2015

NOTE: "FAIR" INDICATES FEW OR NO CLOUDS BELOW 12,000 FEET WITH NO
       SIGNIFICANT WEATHER AND/OR OBSTRUCTIONS TO VISIBILITY.
       CURRENT SKY AND/OR WEATHER CONDITIONS ARE NOT AVAILABLE FOR
       CHILLICOTHE AND FARMINGTON.

MOZ001>031-035>038-043-044-053-054-270500-
...NORTHERN AND WESTERN MISSOURI...

CITY           SKY/WX    TMP DP  RH WIND       PRES   REMARKS
KANSAS CTY INT PTCLDY    50  39  66 E8        30.03R
KANSAS C DTWN  PTCLDY    51  38  60 NE7       30.02R
LEE`S SUMMIT   CLEAR     52  36  54 NE10      30.01S
ST JOSEPH      PTCLDY    53  33  46 NE9       30.06R
CHILLICOTHE      N/A     52  37  56 NE7       30.07R
KIRKSVILLE     CLEAR     47  35  63 NE5       30.07R

$$
MOZ066>068-077>081-088>096-101>105-270500-
...SOUTHWEST MISSOURI...

CITY           SKY/WX    TMP DP  RH WIND       PRES   REMARKS
SPRINGFIELD    MOCLDY    52  43  71 E9        29.95R
JOPLIN         CLOUDY    51  45  79 NE8       29.93R

$$
MOZ032>034-039>042-045>050-055>058-069>072-270500-
...CENTRAL MISSOURI...

CITY           SKY/WX    TMP DP  RH WIND       PRES   REMARKS
COLUMBIA       PTCLDY    49  38  65 NE10      30.03R
JEFFERSON CITY PTCLDY    54  33  45 NE8       30.02R
ROLLA          CLEAR     47  35  63 NE8       29.99R
SEDALIA        CLEAR     51  36  56 NE8       30.02S
WHITEMAN AFB   CLEAR     48  38  67 NE8       30.00S
WARRENSBURG    CLEAR     50  37  62 NE6       30.01S
OSAGE BEACH    CLEAR     48  36  61 NE7       29.99S

$$
MOZ051-052-059>065-270500-
...EAST CENTRAL MISSOURI...

CITY           SKY/WX    TMP DP  RH WIND       PRES   REMARKS
ST LOUIS INTL  PTCLDY    52  35  52 NE6       30.04R
SPIRIT OF STL  CLEAR     48  37  65 NE6       30.02R
ST CHARLES     CLEAR     46  38  73 N5        30.04R

$$
MOZ072>076-082>087-097>100-106>115-270500-
...SOUTH CENTRAL AND SOUTHEAST MISSOURI...

CITY           SKY/WX    TMP DP  RH WIND       PRES   REMARKS
CAPE GIRARDEAU CLEAR     50  40  68 N7        29.97S
FARMINGTON     CLEAR     48  36  61 N6        30.03S
POPLAR BLUFF   CLEAR     55  38  52 NE8       29.94S
WEST PLAINS    PTCLDY    51  39  63 E7        29.97R

$$



USA.gov is the U.S. government's official web portal to all federal, state and local government web resources and services.